NKS221 KJAX-MYNN

Flight info

Callsign NKS221
Flight time 1h 5m
Altitude 39000
Route EXBOX2 EXBOX DCT PRMUS DCT DEBRL DCT MALET Q93 EBAYY DCT FOMGU Y624 ZFP BR63V HANKX
Aircraft A319/M-SDE3FGHIRWY/LB1

Departure

Time 2026-05-03 23:01
Airport Jacksonville International Airport (KJAX)

Arrival

Time 2026-05-04 00:06
Airport Lynden Pindling International Airport (MYNN)
Time Latitude Longitude Altitude Speed Heading
2026-05-03 22:43 30.49340 -81.68514 37 ft 0 kts 274°
2026-05-03 22:53 30.49340 -81.68509 38 ft 3 kts 274°
2026-05-03 22:53 30.49338 -81.68479 37 ft 3 kts 275°
2026-05-03 22:53 30.49325 -81.68456 38 ft 3 kts 329°
2026-05-03 22:53 30.49310 -81.68451 37 ft 0 kts
2026-05-03 22:57 30.49373 -81.68444 37 ft 23 kts
2026-05-03 22:57 30.49545 -81.68507 37 ft 26 kts 344°
2026-05-03 22:57 30.49718 -81.68478 37 ft 24 kts 12°
2026-05-03 22:57 30.49878 -81.68443 37 ft 15 kts
2026-05-03 22:58 30.49894 -81.68539 37 ft 15 kts 247°
2026-05-03 22:58 30.49857 -81.68662 37 ft 16 kts 250°
2026-05-03 22:58 30.49815 -81.68792 37 ft 17 kts 250°
2026-05-03 22:58 30.49771 -81.68940 37 ft 25 kts 252°
2026-05-03 22:59 30.49708 -81.69146 37 ft 26 kts 250°
2026-05-03 22:59 30.49646 -81.69345 37 ft 26 kts 251°
2026-05-03 22:59 30.49586 -81.69544 37 ft 25 kts 250°
2026-05-03 22:59 30.49526 -81.69740 37 ft 25 kts 251°
2026-05-03 23:00 30.49487 -81.69910 37 ft 18 kts 287°
2026-05-03 23:00 30.49602 -81.69968 37 ft 18 kts 350°
2026-05-03 23:00 30.49682 -81.69804 37 ft 48 kts 71°
2026-05-03 23:00 30.49880 -81.69154 38 ft 120 kts 70°
2026-05-03 23:01 30.50216 -81.68061 302 ft 154 kts 70°
2026-05-03 23:01 30.50581 -81.66903 1005 ft 154 kts 71°
2026-05-03 23:01 30.50946 -81.65810 1861 ft 146 kts 70°
2026-05-03 23:01 30.51301 -81.64731 2495 ft 145 kts 70°
2026-05-03 23:02 30.51660 -81.63598 2893 ft 161 kts 70°
2026-05-03 23:02 30.52081 -81.62235 3007 ft 198 kts 69°
2026-05-03 23:02 30.52596 -81.60553 2973 ft 241 kts 70°
2026-05-03 23:02 30.52897 -81.58540 3190 ft 271 kts 96°
2026-05-03 23:03 30.52127 -81.56593 4056 ft 277 kts 132°
2026-05-03 23:03 30.50559 -81.55351 5117 ft 276 kts 153°
2026-05-03 23:03 30.48801 -81.54439 6039 ft 282 kts 157°
2026-05-03 23:03 30.47005 -81.53519 6961 ft 287 kts 156°
2026-05-03 23:04 30.45199 -81.52536 7894 ft 292 kts 155°
2026-05-03 23:04 30.43367 -81.51472 8812 ft 296 kts 155°
2026-05-03 23:04 30.41559 -81.50384 9652 ft 301 kts 155°
2026-05-03 23:04 30.39695 -81.49239 10467 ft 308 kts 155°
2026-05-03 23:05 30.37762 -81.48044 10992 ft 322 kts 155°
2026-05-03 23:05 30.35734 -81.46783 11422 ft 338 kts 155°
2026-05-03 23:05 30.33608 -81.45459 11809 ft 354 kts 156°
2026-05-03 23:05 30.31408 -81.44095 12149 ft 370 kts 156°
2026-05-03 23:06 30.29059 -81.42637 12514 ft 387 kts 155°
2026-05-03 23:06 30.26685 -81.41153 13129 ft 393 kts 156°
2026-05-03 23:06 30.24280 -81.39645 13813 ft 396 kts 156°
2026-05-03 23:06 30.21860 -81.38129 14483 ft 399 kts 156°
2026-05-03 23:07 30.19392 -81.36586 15168 ft 403 kts 156°
2026-05-03 23:07 30.16919 -81.35039 15893 ft 406 kts 156°
2026-05-03 23:07 30.14454 -81.33495 16540 ft 409 kts 157°
2026-05-03 23:07 30.11937 -81.31924 17197 ft 411 kts 158°
2026-05-03 23:08 30.09434 -81.30362 17843 ft 413 kts 158°
2026-05-03 23:08 30.06899 -81.28780 18478 ft 416 kts 158°
2026-05-03 23:08 30.04319 -81.27173 19047 ft 420 kts 158°
2026-05-03 23:08 30.01745 -81.25568 19597 ft 423 kts 158°
2026-05-03 23:09 29.99113 -81.23928 20180 ft 424 kts 158°
2026-05-03 23:09 29.96514 -81.22310 20661 ft 429 kts 158°
2026-05-03 23:09 29.93846 -81.20650 21169 ft 433 kts 159°
2026-05-03 23:09 29.91179 -81.18993 21698 ft 436 kts 159°
2026-05-03 23:10 29.88527 -81.17302 22150 ft 442 kts 157°
2026-05-03 23:10 29.85872 -81.15398 22617 ft 449 kts 154°
2026-05-03 23:10 29.83181 -81.13614 23081 ft 442 kts 164°
2026-05-03 23:10 29.80298 -81.12592 23617 ft 430 kts 176°
2026-05-03 23:11 29.77355 -81.12270 24149 ft 421 kts 187°
2026-05-03 23:11 29.74455 -81.12329 24615 ft 422 kts 188°
2026-05-03 23:11 29.71496 -81.12422 25043 ft 424 kts 189°
2026-05-03 23:11 29.68531 -81.12517 25430 ft 428 kts 189°
2026-05-03 23:12 29.65565 -81.12601 26032 ft 426 kts 189°
2026-05-03 23:12 29.62654 -81.12670 26957 ft 417 kts 189°
2026-05-03 23:12 29.59780 -81.12731 27928 ft 406 kts 189°
2026-05-03 23:12 29.57014 -81.12791 28885 ft 395 kts 190°
2026-05-03 23:13 29.54308 -81.12851 29825 ft 384 kts 191°
2026-05-03 23:13 29.51657 -81.12913 30588 ft 377 kts 191°
2026-05-03 23:13 29.49057 -81.12974 31116 ft 374 kts 192°
2026-05-03 23:13 29.46459 -81.13042 31484 ft 376 kts 192°
2026-05-03 23:14 29.43830 -81.13105 31858 ft 378 kts 192°
2026-05-03 23:14 29.41223 -81.13162 32470 ft 373 kts 193°
2026-05-03 23:14 29.38657 -81.13213 33081 ft 368 kts 193°
2026-05-03 23:14 29.36091 -81.13183 33522 ft 371 kts 190°
2026-05-03 23:15 29.33486 -81.12988 33900 ft 376 kts 188°
2026-05-03 23:15 29.30877 -81.12626 34186 ft 383 kts 185°
2026-05-03 23:15 29.28218 -81.12074 34525 ft 390 kts 182°
2026-05-03 23:15 29.25588 -81.11334 35093 ft 390 kts 179°
2026-05-03 23:16 29.23017 -81.10424 35578 ft 392 kts 177°
2026-05-03 23:16 29.20441 -81.09344 35896 ft 396 kts 174°
2026-05-03 23:16 29.17849 -81.08208 36185 ft 398 kts 175°
2026-05-03 23:16 29.15250 -81.07065 36340 ft 402 kts 175°
2026-05-03 23:17 29.12633 -81.05916 36545 ft 405 kts 175°
2026-05-03 23:17 29.09989 -81.04754 36698 ft 408 kts 174°
2026-05-03 23:17 29.07332 -81.03581 37060 ft 406 kts 175°
2026-05-03 23:17 29.04765 -81.02438 37569 ft 399 kts 175°
2026-05-03 23:18 29.02163 -81.01288 37841 ft 398 kts 176°
2026-05-03 23:18 28.99591 -81.00158 38023 ft 399 kts 176°
2026-05-03 23:18 28.96954 -80.99006 38088 ft 404 kts 176°
2026-05-03 23:19 28.91603 -80.96677 38099 ft 418 kts 175°
2026-05-03 23:19 28.86088 -80.94260 38102 ft 431 kts 174°
2026-05-03 23:20 28.80447 -80.91773 38100 ft 437 kts 173°
2026-05-03 23:20 28.74769 -80.89270 38102 ft 439 kts 173°
2026-05-03 23:21 28.69015 -80.86769 38090 ft 439 kts 175°
2026-05-03 23:21 28.63293 -80.84564 38094 ft 435 kts 176°
2026-05-03 23:22 28.54615 -80.81246 38089 ft 440 kts 175°
2026-05-03 23:22 28.48854 -80.79035 38091 ft 439 kts 175°
2026-05-03 23:23 28.43026 -80.76812 38092 ft 440 kts 175°
2026-05-03 23:23 28.37203 -80.74583 38088 ft 441 kts 175°
2026-05-03 23:24 28.31389 -80.72367 38089 ft 441 kts 175°
2026-05-03 23:24 28.25591 -80.70157 38083 ft 441 kts 174°
2026-05-03 23:25 28.19782 -80.67941 38077 ft 441 kts 175°
2026-05-03 23:25 28.13948 -80.65723 38078 ft 442 kts 174°
2026-05-03 23:26 28.08103 -80.63500 38081 ft 443 kts 174°
2026-05-03 23:26 28.02241 -80.61280 38077 ft 444 kts 174°
2026-05-03 23:27 27.96404 -80.59064 38072 ft 444 kts 174°
2026-05-03 23:27 27.90558 -80.56844 38072 ft 442 kts 174°
2026-05-03 23:28 27.84731 -80.54638 38072 ft 442 kts 174°
2026-05-03 23:28 27.78914 -80.52220 38069 ft 453 kts 168°
2026-05-03 23:29 27.73298 -80.48768 38073 ft 470 kts 159°
2026-05-03 23:29 27.68054 -80.44141 38072 ft 487 kts 148°
2026-05-03 23:30 27.63334 -80.38528 38065 ft 496 kts 143°
2026-05-03 23:30 27.58737 -80.32717 38065 ft 494 kts 143°
2026-05-03 23:31 27.54150 -80.26974 38065 ft 493 kts 143°
2026-05-03 23:31 27.49541 -80.21246 38066 ft 496 kts 143°
2026-05-03 23:32 27.44902 -80.15492 38060 ft 496 kts 143°
2026-05-03 23:32 27.40447 -80.09617 38049 ft 500 kts 138°
2026-05-03 23:33 27.36493 -80.03037 38051 ft 513 kts 130°
2026-05-03 23:33 27.33063 -79.95982 38049 ft 518 kts 127°
2026-05-03 23:34 27.29679 -79.88882 38045 ft 514 kts 128°
2026-05-03 23:34 27.26201 -79.81919 38047 ft 509 kts 131°
2026-05-03 23:35 27.22254 -79.75386 38042 ft 504 kts 135°
2026-05-03 23:35 27.18214 -79.68976 38049 ft 504 kts 135°
2026-05-03 23:36 27.14181 -79.62553 38043 ft 504 kts 134°
2026-05-03 23:36 27.10151 -79.56125 38041 ft 503 kts 134°
2026-05-03 23:37 27.06154 -79.49749 38038 ft 501 kts 134°
2026-05-03 23:37 27.02130 -79.43344 38033 ft 502 kts 134°
2026-05-03 23:38 26.98083 -79.36912 38029 ft 504 kts 134°
2026-05-03 23:38 26.94063 -79.30530 38026 ft 503 kts 135°
2026-05-03 23:39 26.90023 -79.24125 38028 ft 501 kts 135°
2026-05-03 23:39 26.85996 -79.17752 38026 ft 505 kts 134°
2026-05-03 23:40 26.81980 -79.11388 38029 ft 503 kts 134°
2026-05-03 23:40 26.77930 -79.05008 38023 ft 503 kts 135°
2026-05-03 23:41 26.73891 -78.98657 38023 ft 502 kts 134°
2026-05-03 23:41 26.69822 -78.92268 38022 ft 505 kts 134°
2026-05-03 23:42 26.67798 -78.89085 37886 ft 507 kts 134°
2026-05-03 23:42 26.65758 -78.85875 37595 ft 503 kts 134°
2026-05-03 23:42 26.63738 -78.82692 37305 ft 498 kts 134°
2026-05-03 23:42 26.61731 -78.79559 37006 ft 491 kts 136°
2026-05-03 23:43 26.59512 -78.76814 36373 ft 475 kts 147°
2026-05-03 23:43 26.56940 -78.74508 35359 ft 471 kts 153°
2026-05-03 23:43 26.54294 -78.72382 34311 ft 474 kts 153°
2026-05-03 23:43 26.51600 -78.70246 33269 ft 478 kts 152°
2026-05-03 23:44 26.48913 -78.68095 32352 ft 481 kts 152°
2026-05-03 23:44 26.46191 -78.65893 31467 ft 483 kts 152°
2026-05-03 23:44 26.43479 -78.63688 30488 ft 486 kts 151°
2026-05-03 23:44 26.40766 -78.61471 29482 ft 489 kts 151°
2026-05-03 23:45 26.38016 -78.59223 28418 ft 493 kts 150°
2026-05-03 23:45 26.35239 -78.56956 27342 ft 496 kts 150°
2026-05-03 23:45 26.32479 -78.54700 26296 ft 497 kts 150°
2026-05-03 23:45 26.29700 -78.52425 25426 ft 493 kts 150°
2026-05-03 23:46 26.26985 -78.50204 24654 ft 487 kts 149°
2026-05-03 23:46 26.24276 -78.47987 23886 ft 482 kts 149°
2026-05-03 23:46 26.21586 -78.45792 23059 ft 480 kts 149°
2026-05-03 23:46 26.18905 -78.43607 22320 ft 475 kts 149°
2026-05-03 23:47 26.16254 -78.41446 21645 ft 470 kts 149°
2026-05-03 23:47 26.13612 -78.39295 20988 ft 463 kts 148°
2026-05-03 23:47 26.11068 -78.37222 20352 ft 456 kts 148°
2026-05-03 23:47 26.08514 -78.35144 19697 ft 451 kts 148°
2026-05-03 23:48 26.05986 -78.33086 19019 ft 448 kts 148°
2026-05-03 23:48 26.03486 -78.31053 18397 ft 443 kts 148°
2026-05-03 23:48 26.01021 -78.29047 17788 ft 439 kts 148°
2026-05-03 23:48 25.98586 -78.27068 17145 ft 435 kts 148°
2026-05-03 23:49 25.96172 -78.25105 16533 ft 427 kts 148°
2026-05-03 23:49 25.93776 -78.23164 15931 ft 423 kts 148°
2026-05-03 23:49 25.91403 -78.21244 15293 ft 421 kts 148°
2026-05-03 23:49 25.89035 -78.19328 14677 ft 418 kts 148°
2026-05-03 23:50 25.86698 -78.17438 14103 ft 413 kts 148°
2026-05-03 23:50 25.85157 -78.16190 13724 ft 409 kts 147°
2026-05-03 23:50 25.82142 -78.13743 12935 ft 405 kts 147°
2026-05-03 23:50 25.79856 -78.11889 12345 ft 403 kts 147°
2026-05-03 23:51 25.77624 -78.10082 11767 ft 400 kts 147°
2026-05-03 23:51 25.75385 -78.08270 11319 ft 391 kts 147°
2026-05-03 23:51 25.73218 -78.06514 10878 ft 384 kts 147°
2026-05-03 23:51 25.71089 -78.04793 10555 ft 373 kts 147°
2026-05-03 23:52 25.69017 -78.03117 10378 ft 360 kts 147°
2026-05-03 23:52 25.67024 -78.01508 10232 ft 347 kts 147°
2026-05-03 23:52 25.65120 -77.99974 10107 ft 335 kts 147°
2026-05-03 23:52 25.63266 -77.98480 9993 ft 321 kts 147°
2026-05-03 23:53 25.61484 -77.97046 9734 ft 317 kts 147°
2026-05-03 23:53 25.59718 -77.95622 9429 ft 310 kts 147°
2026-05-03 23:53 25.57979 -77.94223 8986 ft 303 kts 147°
2026-05-03 23:53 25.56298 -77.92870 8569 ft 295 kts 147°
2026-05-03 23:54 25.54680 -77.91567 8206 ft 287 kts 147°
2026-05-03 23:54 25.53074 -77.90276 7863 ft 279 kts 147°
2026-05-03 23:54 25.51527 -77.89033 7547 ft 274 kts 147°
2026-05-03 23:54 25.49974 -77.87786 7273 ft 271 kts 147°
2026-05-03 23:55 25.48472 -77.86581 7030 ft 267 kts 147°
2026-05-03 23:55 25.46969 -77.85376 6673 ft 264 kts 147°
2026-05-03 23:55 25.45511 -77.84206 6311 ft 257 kts 147°
2026-05-03 23:55 25.44078 -77.83056 5948 ft 250 kts 147°
2026-05-03 23:56 25.42677 -77.81932 5581 ft 245 kts 146°
2026-05-03 23:56 25.41324 -77.80846 5221 ft 240 kts 147°
2026-05-03 23:56 25.39977 -77.79768 4858 ft 237 kts 146°
2026-05-03 23:56 25.38651 -77.78708 4498 ft 236 kts 146°
2026-05-03 23:57 25.37329 -77.77648 4140 ft 235 kts 145°
2026-05-03 23:57 25.35997 -77.76582 3778 ft 234 kts 145°
2026-05-03 23:57 25.34681 -77.75528 3442 ft 233 kts 145°
2026-05-03 23:57 25.33389 -77.74490 3200 ft 232 kts 144°
2026-05-03 23:58 25.32073 -77.73434 2960 ft 232 kts 145°
2026-05-03 23:58 25.30767 -77.72388 2724 ft 232 kts 144°
2026-05-03 23:58 25.29455 -77.71337 2485 ft 232 kts 144°
2026-05-03 23:58 25.28151 -77.70292 2248 ft 232 kts 144°
2026-05-03 23:59 25.26833 -77.69237 2038 ft 231 kts 143°
2026-05-03 23:59 25.25565 -77.68218 1995 ft 222 kts 143°
2026-05-03 23:59 25.24323 -77.67221 1992 ft 218 kts 143°
2026-05-03 23:59 25.23044 -77.66335 1995 ft 216 kts 152°
2026-05-04 00:00 25.21751 -77.65565 1984 ft 205 kts 147°
2026-05-04 00:00 25.20636 -77.64671 2051 ft 190 kts 139°
2026-05-04 00:00 25.19665 -77.63689 2018 ft 187 kts 135°
2026-05-04 00:00 25.18751 -77.62672 2004 ft 187 kts 133°
2026-05-04 00:01 25.17858 -77.61662 1987 ft 179 kts 134°
2026-05-04 00:01 25.16988 -77.60683 1986 ft 177 kts 133°
2026-05-04 00:01 25.16122 -77.59712 1986 ft 177 kts 134°
2026-05-04 00:01 25.15255 -77.58746 2004 ft 177 kts 134°
2026-05-04 00:02 25.14431 -77.57829 1990 ft 158 kts 134°
2026-05-04 00:02 25.13706 -77.57028 1943 ft 136 kts 135°
2026-05-04 00:02 25.13050 -77.56301 1958 ft 132 kts 134°
2026-05-04 00:02 25.12407 -77.55585 1923 ft 132 kts 135°
2026-05-04 00:03 25.11762 -77.54869 1770 ft 131 kts 134°
2026-05-04 00:03 25.11117 -77.54150 1595 ft 131 kts 134°
2026-05-04 00:03 25.10477 -77.53439 1431 ft 130 kts 134°
2026-05-04 00:03 25.09839 -77.52731 1266 ft 130 kts 134°
2026-05-04 00:04 25.09199 -77.52020 1097 ft 130 kts 131°
2026-05-04 00:04 25.08567 -77.51316 937 ft 130 kts 134°
2026-05-04 00:04 25.07927 -77.50607 771 ft 129 kts 134°
2026-05-04 00:04 25.07298 -77.49909 606 ft 130 kts 133°
2026-05-04 00:05 25.06652 -77.49192 443 ft 130 kts 134°
2026-05-04 00:05 25.06018 -77.48502 256 ft 129 kts 133°
2026-05-04 00:05 25.05382 -77.47786 130 ft 130 kts 133°
2026-05-04 00:05 25.04744 -77.47086 28 ft 121 kts 132°
2026-05-04 00:06 25.04273 -77.46558 24 ft 72 kts 135°
2026-05-04 00:06 25.03984 -77.46238 24 ft 50 kts 137°
2026-05-04 00:06 25.03786 -77.46014 24 ft 19 kts 126°
2026-05-04 00:06 25.03806 -77.45895 24 ft 17 kts 41°
2026-05-04 00:07 25.03908 -77.45894 24 ft 17 kts 318°
2026-05-04 00:07 25.03991 -77.45995 24 ft 17 kts 309°
2026-05-04 00:07 25.04080 -77.46091 24 ft 18 kts 320°
2026-05-04 00:07 25.04172 -77.46191 24 ft 21 kts 313°
2026-05-04 00:08 25.04347 -77.46381 24 ft 37 kts 314°
2026-05-04 00:08 25.04526 -77.46579 24 ft 34 kts 317°
2026-05-04 00:08 25.04689 -77.46764 24 ft 32 kts 315°
2026-05-04 00:08 25.04841 -77.46925 26 ft 20 kts 317°
2026-05-04 00:09 25.04957 -77.46888 25 ft 19 kts 37°
2026-05-04 00:09 25.05042 -77.46886 25 ft 0 kts 353°